Track COSMOS 2384 now! 10-day predictions COSMOS 2384 is classified as:
1 27055U 01058A 25183.85080823 .00000018 00000-0 45993-4 0 9999 2 27055 82.5455 96.4977 0009764 329.3839 30.6680 12.59880170 81064